RH
19 21 24 20 18 14 12 14 12 12 10 10 12 13 10 8 12 28 40 50 48 47 43 42 43 46 50 51 52 55 57 58 59 63 68 68 70 67 65 62 66 59 72 80
24 26 19 16 15 15 14 14 13 11 9 13 13 12 10 10 18 36 48 49 49 49 48 45 47 50 57 56 56 57 58 59 60 62 64 67 67 67 66 64 62 67 61 76
25 22 16 15 16 16 16 15 14 15 12 12 12 14 11 14 38 42 44 44 46 51 54 52 48 56 61 61 61 60 60 61 62 62 59 61 63 67 71 69 66 61 61 64
21 16 16 17 16 15 18 16 14 13 15 18 15 24 14 16 46 47 45 51 54 53 53 53 54 58 62 61 61 63 63 64 60 61 66 69 72 76 72 73 70 67 67 55
25 20 21 19 17 14 19 18 21 20 20 22 18 25 18 15 49 50 50 49 53 54 57 59 58 59 63 65 65 66 66 65 63 67 66 70 74 73 72 71 73 71 67 66
21 15 17 18 17 16 16 17 20 20 22 41 23 25 24 24 45 47 46 50 52 55 61 57 55 59 68 65 66 68 69 68 66 71 67 71 76 77 78 77 77 77 73 66
22 18 17 15 20 18 17 23 40 46 43 45 23 28 34 42 41 44 53 57 59 61 63 62 65 71 72 69 72 71 72 72 72 72 70 74 77 78 80 81 82 83 80 73
30 35 21 17 20 24 23 25 61 61 60 49 22 22 47 40 41 44 48 55 57 61 60 62 71 79 77 72 76 79 77 77 79 75 75 74 75 82 83 80 83 86 77 74
37 27 19 17 16 19 28 32 24 52 43 52 29 39 37 42 46 47 52 57 63 62 63 66 75 83 75 77 78 81 82 80 89 83 82 79 77 81 86 85 91 78 72 70
37 49 21 19 18 19 21 28 50 51 53 44 29 31 44 54 55 53 62 65 63 62 66 72 80 85 75 77 77 80 80 83 93 84 89 81 82 80 81 83 87 91 92 79
28 59 39 28 35 26 30 53 42 47 57 66 61 52 47 59 58 65 63 61 68 73 71 74 82 85 81 78 79 79 78 77 84 90 89 87 86 87 85 87 90 92 96 86
39 67 59 31 26 20 22 36 44 76 51 56 68 64 51 56 59 64 63 62 67 66 69 73 81 85 86 82 79 78 76 79 80 83 82 84 87 89 89 90 90 91 94 95
38 70 61 47 40 33 32 24 26 42 55 62 77 72 49 52 60 62 69 65 64 63 68 73 85 89 89 87 82 77 73 76 78 75 84 84 87 88 91 92 91 91 90 92
52 56 64 56 52 45 46 32 26 42 75 57 53 69 63 64 69 67 68 66 64 62 65 73 86 87 90 92 81 75 74 73 74 76 78 82 84 86 89 91 93 93 91 91
62 72 56 45 45 39 33 34 30 59 52 65 46 42 66 74 74 75 67 63 58 56 58 68 82 85 88 89 79 72 74 71 72 75 78 82 80 79 83 86 90 92 93 94
61 76 55 56 44 44 26 38 38 34 39 35 36 39 60 63 65 74 68 59 61 57 59 63 67 74 86 78 72 70 75 72 71 78 79 78 78 77 83 85 87 89 90 91
72 68 63 79 56 50 50 41 40 67 51 46 61 71 69 68 73 83 73 65 62 56 56 62 65 69 75 72 66 70 70 69 70 78 74 77 78 80 82 82 87 90 92 90
75 63 71 59 51 61 40 23 18 29 43 42 61 81 71 68 81 77 65 66 61 54 54 55 55 57 61 63 61 63 62 66 70 72 72 77 82 81 81 83 88 92 91 92
53 64 84 74 48 39 48 35 39 40 48 34 75 70 62 62 80 81 59 56 57 54 54 55 53 57 58 58 57 58 62 66 69 75 74 78 82 80 86 88 90 91 94 92
48 58 74 72 56 65 63 32 32 35 90 61 65 70 72 64 95 93 68 59 52 50 51 52 52 55 58 58 58 59 66 69 74 76 74 79 84 78 83 86 90 89 91 91
67 68 68 66 86 77 48 38 36 61 83 66 71 74 80 92 90 76 66 52 49 49 50 50 53 59 61 60 62 67 69 72 72 72 75 80 81 83 79 82 82 84 89 90
63 69 77 74 89 89 42 41 58 80 70 71 75 77 83 80 74 67 56 51 50 52 52 52 57 59 61 63 70 76 80 68 71 72 77 83 83 88 79 82 80 81 84 88
75 77 76 71 80 65 53 61 60 62 69 72 75 72 73 78 73 64 58 55 55 56 57 56 60 61 61 62 67 81 79 76 74 77 79 83 85 85 91 90 85 84 85 89
54 44 84 71 63 59 52 48 56 56 62 67 64 66 69 76 70 68 60 62 63 63 64 62 65 68 70 67 68 74 80 81 78 81 81 84 91 89 93 89 88 90 91 90
77 55 78 72 68 53 52 56 61 57 56 55 59 60 66 70 70 76 72 70 71 72 69 69 75 75 76 72 73 73 79 86 91 84 84 89 87 92 92 96 97 95 96 96
75 81 95 98 64 68 62 58 58 65 73 67 67 69 65 67 72 80 79 76 74 78 75 79 79 80 76 76 80 82 84 88 95 94 90 94 94 93 91 93 96 96 94 88
Wind_Speed
5 3 7 9 11 13 11 5 5 2 4 6 6 5 10 10 6 10 13 13 13 8 7 11 12 12 12 13 15 16 17 17 16 13 13 13 14 13 15 14 18 17 13 18
6 9 11 12 7 1 4 4 6 8 5 3 3 5 12 5 6 13 15 12 10 8 12 11 10 9 9 12 14 17 17 17 15 12 13 13 12 14 14 15 19 18 19 17
12 10 16 11 5 3 4 4 6 5 6 2 4 6 9 5 18 17 13 9 10 9 7 7 10 7 8 12 14 16 17 17 16 17 13 14 14 14 13 13 14 15 18 21
11 15 12 4 4 6 4 4 6 4 4 3 7 6 5 12 13 14 10 11 9 8 6 5 7 8 10 12 14 16 16 17 15 18 15 18 16 18 15 15 16 17 22 21
8 3 5 8 6 6 3 7 3 4 4 4 6 4 9 11 9 11 9 11 8 6 6 7 7 7 6 9 12 14 15 16 18 18 17 15 18 15 14 15 22 21 18 21
10 6 7 7 3 2 8 5 3 4 2 5 15 10 6 5 15 10 11 10 7 5 4 4 5 7 7 11 13 16 17 20 20 19 18 18 20 20 17 17 18 16 14 14
11 15 4 6 5 5 6 6 3 2 2 8 6 9 2 10 13 15 13 8 5 4 5 8 9 9 10 15 15 16 18 22 21 20 18 19 21 21 22 21 16 18 15 12
10 5 11 5 7 7 7 9 7 7 4 4 6 4 5 14 15 14 12 7 4 6 8 7 7 7 9 13 14 16 19 21 22 21 22 19 19 13 15 18 17 18 15 11
9 11 5 11 7 9 6 6 6 1 3 1 4 6 8 13 13 11 11 11 8 7 7 6 6 5 11 13 15 16 17 21 21 21 20 21 19 18 17 20 19 11 12 7
5 1 4 7 7 5 4 1 4 1 4 6 6 8 6 12 11 10 7 6 6 5 6 4 5 6 10 11 13 14 15 17 18 20 18 18 20 19 18 17 17 15 7 4
9 5 1 7 5 7 3 2 4 4 4 4 0 2 7 13 10 9 8 5 2 2 4 5 5 6 7 9 11 14 15 19 18 19 18 19 19 19 18 16 17 18 11 8
8 5 5 10 8 9 5 7 6 6 3 4 5 1 6 11 10 8 5 1 2 3 5 4 4 7 6 8 11 13 14 15 17 17 19 19 18 18 18 19 19 17 16 8
7 4 4 3 2 1 4 9 11 6 3 4 4 4 7 8 8 6 6 6 5 4 5 6 5 6 7 8 11 13 14 14 16 17 18 20 19 20 18 18 17 14 16 16
7 2 6 12 2 6 5 9 11 12 5 5 5 9 8 6 6 6 4 5 4 6 6 5 6 7 6 5 10 13 14 13 15 16 17 19 20 19 19 18 17 19 17 17
6 4 4 4 9 13 7 8 16 10 10 9 8 7 10 8 6 6 3 1 6 10 10 8 7 8 6 6 11 13 12 14 15 16 17 18 19 19 19 19 16 15 16 16
4 8 2 13 14 14 12 10 12 14 9 11 8 3 8 8 7 6 4 9 10 10 10 9 9 10 7 10 13 14 11 13 15 15 16 17 19 19 19 19 19 17 17 17
8 6 4 7 14 18 16 8 7 5 4 8 9 5 8 5 6 5 5 7 7 8 10 9 10 9 7 10 13 15 12 14 15 15 16 17 18 17 19 19 18 17 16 15
10 9 5 2 4 17 5 11 10 12 9 6 11 10 9 7 6 7 6 6 6 7 8 8 10 9 7 10 13 14 13 14 15 16 16 16 17 18 18 17 18 18 14 15
6 8 2 7 11 10 3 4 5 5 6 9 12 10 9 9 7 7 7 5 4 6 5 6 8 6 9 12 13 14 15 15 15 16 16 14 15 17 18 18 17 16 14 15
13 8 7 5 11 13 6 16 5 2 3 8 14 11 8 2 3 1 4 5 6 6 6 9 10 9 11 13 13 14 16 17 18 16 15 14 12 14 16 16 16 14 13 12
12 9 15 6 1 5 5 6 4 5 6 9 11 9 7 5 4 4 3 4 7 8 9 9 9 9 11 14 14 14 15 17 18 16 15 14 13 12 13 14 12 13 12 11
12 10 6 3 5 9 5 5 3 10 9 9 9 11 12 8 6 5 6 8 10 9 11 11 9 10 11 13 12 13 15 16 16 16 15 15 13 8 9 12 13 13 12 12
3 7 6 7 5 1 6 11 12 14 11 11 12 11 10 8 5 5 6 10 11 11 11 11 11 12 11 13 12 13 14 15 16 15 14 14 14 11 9 11 12 10 12 11
4 5 4 4 6 14 11 11 16 15 14 13 13 10 9 9 6 6 8 9 10 11 11 11 11 12 12 12 13 12 13 14 13 14 14 12 12 14 10 7 8 10 12 11
4 9 8 3 13 14 12 15 16 16 14 14 15 13 11 9 9 9 10 10 9 9 10 10 9 10 11 12 12 13 13 14 11 11 11 11 10 11 11 6 7 7 10 13
1 7 5 4 10 10 12 12 16 15 14 12 16 14 11 9 9 10 9 7 8 9 8 7 10 9 11 12 11 12 13 14 11 8 9 9 8 8 8 8 6 10 18 23
Wind_Direction
219 173 226 219 216 237 260 276 298 276 166 126 195 231 266 283 135 104 83 72 60 43 50 40 24 14 12 3 357 353 344 344 336 330 328 322 312 304 297 294 289 283 244 234
276 233 236 244 249 246 291 295 301 304 115 108 237 263 263 250 136 101 91 75 65 36 33 20 12 4 12 360 352 345 340 339 329 320 317 304 297 294 287 284 282 273 274 235
215 239 209 265 172 209 261 254 273 254 338 357 281 301 273 152 107 90 82 90 72 57 33 10 354 4 8 356 348 341 334 333 323 313 312 306 294 289 292 286 284 272 259 247
237 241 225 195 226 185 226 70 23 21 44 239 85 285 300 155 103 90 86 74 67 49 27 8 348 9 5 349 346 339 328 322 318 317 307 300 293 294 291 284 281 276 277 270
233 249 183 183 200 226 224 83 27 327 308 328 293 278 232 169 120 117 100 83 65 37 24 3 354 4 348 349 338 331 318 323 323 317 307 300 294 288 290 285 283 272 269 269
233 263 161 171 202 150 111 65 300 252 196 270 224 204 256 249 140 115 101 87 69 32 16 347 358 4 352 346 336 335 327 330 324 315 310 302 297 296 291 283 282 270 271 269
244 235 176 148 120 77 80 84 315 342 199 229 239 191 293 108 103 106 103 90 68 21 10 8 7 359 353 340 336 332 329 327 323 316 319 315 303 294 293 285 272 272 263 248
213 215 165 153 170 165 177 157 177 223 190 283 235 210 175 116 102 98 102 120 81 25 29 352 11 359 342 333 332 331 330 323 321 323 326 317 307 303 293 287 279 272 243 230
196 231 138 159 143 151 222 192 221 321 270 107 222 76 102 116 94 77 65 47 29 8 10 360 355 1 345 338 334 329 326 323 319 328 321 319 317 312 306 304 299 287 231 205
283 129 138 130 122 233 141 238 88 334 212 231 228 174 171 123 104 89 84 66 21 351 327 358 2 357 345 338 325 322 323 323 321 324 320 320 319 317 319 320 329 324 308 158
215 103 264 97 181 156 156 265 218 176 184 200 223 89 110 116 112 100 69 58 300 8 333 7 0 337 338 332 322 325 330 334 329 325 325 323 328 322 332 335 334 331 310 201
175 143 201 202 175 207 204 199 190 133 261 239 146 149 98 103 101 106 110 29 2 18 351 8 348 327 326 330 331 332 333 336 336 331 326 331 334 331 341 345 340 340 341 318
172 187 142 120 326 257 201 221 216 202 124 230 139 169 132 101 102 96 70 351 353 348 0 352 335 313 330 335 334 338 334 338 340 339 334 337 344 342 341 339 342 341 351 342
60 141 168 219 134 166 220 220 235 205 200 179 205 125 133 119 110 101 87 303 352 358 1 340 324 327 325 325 339 340 335 344 342 345 341 342 344 346 342 345 342 -0 352 353
97 21 13 308 334 288 210 231 227 226 203 188 213 144 135 149 136 125 108 299 15 9 2 356 344 340 326 345 347 341 338 349 345 348 345 348 343 348 348 350 353 359 2 355
180 208 220 276 268 283 277 223 222 239 225 214 178 174 137 137 127 114 54 27 16 3 357 355 354 348 351 3 350 342 351 353 347 351 351 350 347 353 350 351 355 2 7 0
151 151 144 235 228 266 264 220 229 214 235 198 212 150 122 100 97 94 60 39 6 6 356 359 356 343 7 4 352 341 353 354 350 351 355 356 350 355 355 353 350 0 11 8
154 165 156 145 197 226 233 187 223 217 219 171 117 141 133 126 121 107 66 42 4 17 5 4 355 345 13 6 354 340 356 357 352 354 356 1 356 357 357 358 357 352 360 9
166 174 182 171 216 277 294 168 154 187 257 187 129 124 113 106 97 57 34 359 17 37 23 7 355 354 16 7 357 347 358 356 355 357 358 3 0 2 358 359 359 353 356 7
202 187 208 172 216 238 260 224 145 90 68 23 117 109 102 98 117 84 332 309 56 52 39 18 6 12 18 6 2 359 358 354 354 356 358 1 5 6 8 359 357 353 355 9
188 201 209 205 181 288 200 71 69 156 183 96 98 104 108 96 136 176 284 47 66 56 36 26 17 17 18 7 3 4 359 356 346 350 354 1 5 8 11 3 359 359 356 10
182 171 189 141 192 241 127 127 170 139 108 115 95 96 96 92 68 43 39 58 57 45 35 28 22 17 17 8 5 3 3 348 346 351 356 354 2 14 11 16 6 4 9 14
171 166 155 167 202 2 66 114 121 121 124 115 100 98 100 94 59 32 49 56 50 44 31 23 21 12 10 6 6 2 355 347 348 350 357 354 353 3 8 15 19 19 15 23
129 176 91 92 155 114 99 88 98 101 101 114 115 118 111 106 75 41 59 55 48 40 28 19 18 10 1 359 1 3 349 347 347 348 354 355 352 356 2 19 17 23 23 19
176 162 155 168 129 109 101 99 103 93 89 90 84 86 79 84 65 71 63 53 46 35 25 17 13 6 355 353 356 355 346 343 348 349 350 349 356 357 355 16 19 25 34 22
297 149 153 156 158 121 130 122 113 98 83 69 102 83 67 76 72 88 74 69 53 39 21 7 22 360 356 356 352 350 344 345 345 0 351 344 351 356 355 359 9 21 25 20